Location: Unspecified
(49.2170°N, 0.0000°E)
Time: 05:28:22
(UTC+00:00)

Vanguard 1 - Pass Details

Date: 26 January 2021
Orbit: 649 x 3834 km, 34.2° (Epoch: 05 March)

Event Time Altitude Azimuth Distance (km) Brightness Sun altitude
Rises 19:57:15 0° 280° (W) 7,981 15.9 -30.9°
Reaches altitude 10° 20:06:08 10° 264° (W) 6,838 15.1 -32.3°
Maximum altitude 20:17:00 16° 234° (SW) 5,819 14.3 -34.1°
Drops below altitude 10° 20:26:18 10° 203° (SSW) 5,666 14.0 -35.5°
Sets 20:32:31 0° 184° (S) 6,075 14.0 -36.5°
